SES-10 (42432 NORAD) Tracking and Keplerian Element Data

This shows tracking and keplerian element data for the satellite.

Feedback or suggestion? Click here.




ElementValue
Catalog42432
NameSES-10
Epoch Orbit478
Epoch Day198.36606963
Epoch Year2018
RAAN32.5501
Inclination0.0096
Eccentricity0.0002565
Argument of Perigee78.7879
Mean Anonmoly248.6712
Mean Motion1.00271389
Decay Rate-2.92E-06
L11 42432U 17017A 18198.36606963 -.00000292 00000-0 00000-0 0 9991
L22 42432 0.0096 32.5501 0002565 78.7879 248.6712 1.00271389 4782

Live tracking and technical data element details for SES-10 (NORAD 42432). SES-10 can be tracked NOW for your location showing map with azimuth and elevation plus other details from your city location.

Track the satellite on the map from your city or location and see movement details for azimuth, elevation, latitude, longitude, range, height, and movement on the map or in text.







IsCatalogInMostPopularTable: catalog: 42432, numindb: 82
Update: records affected: 1



GetName: 42432 SES-10

Hit Count: updated at: Fri, 20 Jul 2018 20:36:45 GMT